This is the latest recevied weather packets stored in our database for station/object DO8TBO-15. If no packets are shown the sender has not sent any weather packets the latest 1 day(s).
| Time | Temp. | Humidity | Pressure | Rain* | Wind** | Luminosity | Snow |
|---|---|---|---|---|---|---|---|
| 1777970773 | 18.89° C | - | 1008.5 hPa | 0 mm | 0 m/s | - | - |
| 1777970169 | 17.78° C | - | 1008.6 hPa | 0 mm | 0.89 m/s, 23° | - | - |
| 1777969565 | 17.22° C | - | 1008.8 hPa | 0 mm | 0 m/s | - | - |
| 1777968961 | 17.22° C | - | 1008.8 hPa | 0 mm | 0.45 m/s, 1° | - | - |
| 1777968358 | 16.67° C | - | 1008.9 hPa | 0 mm | 0.89 m/s, 45° | - | - |
| 1777967150 | 16.67° C | - | 1009 hPa | 0 mm | 0 m/s | - | - |
| 1777966546 | 16.67° C | - | 1008.9 hPa | 0 mm | 0.45 m/s, 327° | - | - |
| 1777965943 | 16.11° C | - | 1009 hPa | 0 mm | 0.45 m/s, 1° | - | - |
| 1777965339 | 16.11° C | - | 1009 hPa | 0 mm | 0 m/s | - | - |
| 1777964735 | 15.56° C | - | 1009 hPa | 0 mm | 0.89 m/s, 293° | - | - |
| 1777964132 | 15.56° C | - | 1008.9 hPa | 0 mm | 0.45 m/s, 343° | - | - |
| 1777963558 | 15.56° C | - | 1009 hPa | 0 mm | 0.45 m/s, 334° | - | - |
| 1777962955 | 15° C | - | 1008.9 hPa | 0 mm | 0 m/s | - | - |
| 1777962351 | 15° C | - | 1008.9 hPa | 0 mm | 0.45 m/s, 345° | - | - |
| 1777961747 | 14.44° C | - | 1008.9 hPa | 0 mm | 0 m/s | - | - |
| 1777954564 | 13.33° C | - | 1008.9 hPa | 0.25 mm | 0.45 m/s, 347° | - | - |
| 1777953356 | 13.33° C | - | 1009 hPa | 0.25 mm | 0.45 m/s, 346° | - | - |
| 1777952752 | 13.33° C | - | 1009 hPa | 0.25 mm | 0.45 m/s, 345° | - | - |
| 1777950941 | 13.33° C | - | 1009.4 hPa | 0 mm | 0 m/s | - | - |
| 1777950337 | 13.89° C | - | 1009.5 hPa | 0 mm | 0.45 m/s, 0° | - | - |
| 1777946170 | 13.89° C | - | 1010.5 hPa | 0.25 mm | 0.45 m/s, 160° | - | - |
| 1777940736 | 15° C | - | 1010.8 hPa | 0 mm | 0 m/s | - | - |
| 1777938321 | 15.56° C | - | 1011 hPa | 0 mm | 0.45 m/s, 280° | - | - |
| 1777937718 | 15.56° C | - | 1011 hPa | 0 mm | 0.45 m/s, 7° | - | - |
| 1777937174 | 15.56° C | - | 1011 hPa | 0 mm | 0.89 m/s, 332° | - | - |
* Rain latest hour (hover to see other rain measurements)
** Current wind speed in m/s (hover to see current wind gust speed)